SCOUT A DEB, 2353

Orbit data source: Space-Track

SCOUT A DEB, 2353 is space debris in LEO originally from a launch on Sat, 26 Mar 1966 UTC launched from the Air Force Western Test Range (AFWTR). Debris objects in space refer to the collection of defunct objects orbiting the Earth. Examples of debris include non-operational satellites, rocket bodies, and fragments generated from explosions, collisions, or faulty payload assembly.

Loading next visibility...
Identifier
2353, 1966-024C
Orbit
LEO
Last TLE update
12 hours ago
Origin
Manufacturer
Unknown
Mission
Spacecraft
Bus & Motor
Unknown
Mass
Unknown
Launch date (UTC)
1966-03-26 (59 years ago)
Launch vehicle
Unknown
Launch site
Air Force Western Test Range (AFWTR)
Object type
Payload
Rocket body
Debris
Shape & HBR
Unknown
Radar Cross Section
Small (<0.1 m²)

Expand to show TLE details & history

TLE from 12 hours ago
0 SCOUT A DEB
1  2353U 66024C   25182.57636567  .00000136  00000-0  11374-3 0  9993
2  2353  89.3853  36.3080 0153461  52.6993 308.8048 13.77328247967248
Epoch: 2025-07-01T13:49Z
TLE epoch observation values (Epoch: 2025-07-01T13:49:57.993Z)
Latitude
-0.00008°
Longitude
-91.05347°
Altitude
906.725 km
Speed
7.434 km/s
True Right ascension
02h 25m 13s
True Declination
0° 00' 00"
Sunlit
Object was in daylight at epoch
Visualization orbit readout
Latitude
27.76614°
Longitude
-90.76492°
Altitude
873.055 km
Speed
7.47 km/s
Apparent Right ascension
02h 11m 07s
Apparent Declination
-3° 36' 08"
Sunlit
Object is in daylight
Visualization observer readout
Local Sidereal Time
13:51:07
Azimuth
351.607° N
Elevation
-53.405°
Doppler factor
1
Orbital elements
Apogee altitude
1,083.16 km
Perigee altitude
857.617 km
Semi-major axis
7,348.525 km
Eccentricity
0.01535
Inclination
89.3853°
RAAN
36.308°
Arg. of periapsis
52.6993°
True anomaly
Unknown
Mean anomaly
308.8048°
Eccentric anomaly
Unknown
Mean motion
3.44543 °/min
Orbital period
104.49 mins
BSTAR
0.00011374
Loading maneuver chart data...
Loading SW <> Apogee altitude chart data...
Loading historical data...
Loading historical data...
Loading historical data...
Loading historical data...
Loading historical data...
Loading historical data...
Loading historical data...

SCOUT A DEB Visibility forecast

Observer location: undefined°, undefined°

Span
Click to sort rows by Start time (UTC) header in descending order
Start Az.
Max El. time (UTC)
Max El. Az.
Max El.
End time (UTC)
End Az.
12 mins2025-07-02 02:36:05.216Z1.251° NNE2025-07-02 02:42:05.216Z187.661° SSW44.988°2025-07-02 02:48:05.216Z183.315° SSW
9 mins2025-07-02 14:22:05.216Z160.055° S2025-07-02 14:26:05.216Z72.667° E41.477°2025-07-02 14:31:05.216Z5.981° NNE
4 mins2025-07-02 16:09:05.216Z261.161° W2025-07-02 16:11:05.216Z285.252° WNW14.722°2025-07-02 16:13:05.216Z308.444° NW
7 mins2025-07-03 01:19:05.216Z47.232° ENE2025-07-03 01:22:05.216Z84.963° E20.401°2025-07-03 01:26:05.216Z127.176° SE
|